User: anonymous   Login
Location: Roanoke
(37.2710°N, 79.9420°W)
Time: 10:53:08
(UTC-05:00)
Language:

Cosmos 1441 Rocket - Orbit

View from above orbital plane
View from above orbital plane
View from above satellite
View from above satellite

Ground track
Ground track

The orbit data is extracted from the following two-line orbital elements,

1 13819U 83010B   17050.74583476  .00000884  00000-0  45664-4 0  9990
2 13819  81.1165 296.7206 0033232  11.7702 348.4295 15.14795477855945
Epoch (UTC): 19 February 2017 17:54:00
Eccentricity: 0.0033232
inclination: 81.1165°
perigee height: 498 km
apogee height: 544 km
right ascension of ascending node: 296.7206°
argument of perigee: 11.7702°
revolutions per day: 15.14795477
mean anomaly at epoch: 348.4295°
orbit number at epoch: 85594

The dashed part of the orbit path shows where the satellite is in the earth's shadow,  

DLR